Satellite: FALCON
Catalog number: 30776
Epoch time:      09190.74676714
Element set:     609
Inclination:      035.4349 deg
RA of node:       322.5359 deg
Eccentricity:    0.0000431
Arg of perigee:   038.5985 deg
Mean anomaly:     321.4761 deg
Mean motion:   15.03266693 rev/day
Decay rate:       1.79e-06 rev/day^2
Epoch rev:           12849
Checksum:              317

Satellite: MAST
Catalog number: 31126
Epoch time:      09188.68652982
Element set:     634
Inclination:      097.9875 deg
RA of node:       242.5524 deg
Eccentricity:    0.0093865
Arg of perigee:   215.8053 deg
Mean anomaly:     143.6825 deg
Mean motion:   14.53504423 rev/day
Decay rate:       -5.2e-07 rev/day^2
Epoch rev:           11801
Checksum:              311

Satellite: CAPE1
Catalog number: 31130
Epoch time:      09190.81285434
Element set:     644
Inclination:      097.9894 deg
RA of node:       242.7145 deg
Eccentricity:    0.0101896
Arg of perigee:   214.7488 deg
Mean anomaly:     144.6947 deg
Mean motion:   14.52070637 rev/day
Decay rate:       -2.3e-07 rev/day^2
Epoch rev:           11797
Checksum:              318

Satellite: COMPASS
Catalog number: 32787
Epoch time:      09189.30780441
Element set:    0413
Inclination:      097.9421 deg
RA of node:       252.9531 deg
Eccentricity:    0.0014999
Arg of perigee:   327.7561 deg
Mean anomaly:     032.2729 deg
Mean motion:   14.81623155 rev/day
Decay rate:        8.8e-07 rev/day^2
Epoch rev:           06457
Checksum:              320

Satellite: AAUSAT2
Catalog number: 32788
Epoch time:      09190.75956404
Element set:     403
Inclination:      097.9409 deg
RA of node:       254.4548 deg
Eccentricity:    0.0015052
Arg of perigee:   324.5717 deg
Mean anomaly:     035.4461 deg
Mean motion:   14.81746920 rev/day
Decay rate:       1.36e-06 rev/day^2
Epoch rev:            6479
Checksum:              318

Satellite: DO-64
Catalog number: 32789
Epoch time:      09189.76844975
Element set:    0418
Inclination:      097.9451 deg
RA of node:       253.6469 deg
Eccentricity:    0.0015124
Arg of perigee:   325.8266 deg
Mean anomaly:     034.1968 deg
Mean motion:   14.81738980 rev/day
Decay rate:       3.17e-06 rev/day^2
Epoch rev:           06464
Checksum:              365

Satellite: CO-66
Catalog number: 32791
Epoch time:      09189.42062056
Element set:    0397
Inclination:      097.9435 deg
RA of node:       253.0983 deg
Eccentricity:    0.0015837
Arg of perigee:   326.1756 deg
Mean anomaly:     033.8450 deg
Mean motion:   14.81451673 rev/day
Decay rate:       3.44e-06 rev/day^2
Epoch rev:           06455
Checksum:              330

Satellite: RS-30
Catalog number: 32953
Epoch time:      09189.68054717
Element set:     349
Inclination:      082.5003 deg
RA of node:       243.2466 deg
Eccentricity:    0.0020363
Arg of perigee:   129.5336 deg
Mean anomaly:     230.7549 deg
Mean motion:   12.43002104 rev/day
Decay rate:        1.0e-07 rev/day^2
Epoch rev:            5106
Checksum:              265

Satellite: TACSAT-3
Catalog number: 35001
Epoch time:      09190.85970969
Element set:      45
Inclination:      040.4555 deg
RA of node:       105.0666 deg
Eccentricity:    0.0025860
Arg of perigee:   328.1992 deg
Mean anomaly:     031.7275 deg
Mean motion:   15.38900739 rev/day
Decay rate:      1.329e-05 rev/day^2
Epoch rev:             784
Checksum:              308

Satellite: PHARMSAT
Catalog number: 35002
Epoch time:      09190.89901637
Element set:      45
Inclination:      040.4691 deg
RA of node:       104.5199 deg
Eccentricity:    0.0028727
Arg of perigee:   334.3141 deg
Mean anomaly:     025.6287 deg
Mean motion:   15.39668821 rev/day
Decay rate:      1.140e-05 rev/day^2
Epoch rev:             784
Checksum:              291

Satellite: HAWKSAT1
Catalog number: 35003
Epoch time:      09190.89039901
Element set:      46
Inclination:      040.4695 deg
RA of node:       104.4631 deg
Eccentricity:    0.0029521
Arg of perigee:   334.1920 deg
Mean anomaly:     025.7422 deg
Mean motion:   15.39915105 rev/day
Decay rate:       8.66e-06 rev/day^2
Epoch rev:             785
Checksum:              278

Satellite: CP6
Catalog number: 35004
Epoch time:      09189.91212614
Element set:      39
Inclination:      040.4605 deg
RA of node:       110.1985 deg
Eccentricity:    0.0029359
Arg of perigee:   328.6995 deg
Mean anomaly:     031.2082 deg
Mean motion:   15.40164192 rev/day
Decay rate:      2.455e-05 rev/day^2
Epoch rev:             769
Checksum:              292

Satellite: AEROCUB3
Catalog number: 35005
Epoch time:      09189.91815909
Element set:    0050
Inclination:      040.4747 deg
RA of node:       110.3100 deg
Eccentricity:    0.0029207
Arg of perigee:   327.3322 deg
Mean anomaly:     032.5681 deg
Mean motion:   15.39990238 rev/day
Decay rate:      2.567e-05 rev/day^2
Epoch rev:           00769
Checksum:              288

/EX




_______________________________________________
Via the Keps mailing list courtesy of AMSAT-NA
http://amsat.org/mailman/listinfo/keps

--- ViaMAIL!/WC v1.60d
 * Origin: Chowdanet (401-724-4410) telnet://chowdanet.com  (1:323/120)